Helicity
84 67 40 52 46 54 44 45 59 90 107 123 116 110 92 80 77 75 81 120 154 158 139 119 112 102 90 85 82 79 79 79 75 77 80 80 85 89 88 93 105 107 108
94 88 64 47 56 59 58 82 106 117 130 113 122 116 116 95 83 82 84 102 127 132 126 117 106 97 94 86 81 80 81 84 86 85 87 89 97 98 98 100 106 108 111
96 88 80 73 78 95 132 159 159 162 159 138 133 110 104 93 84 88 91 99 111 115 108 106 102 97 98 101 87 84 85 89 91 96 101 109 108 119 119 114 112 113 113
111 114 126 121 153 176 183 186 183 176 154 133 121 113 99 84 86 88 88 85 79 83 90 95 92 97 107 110 110 109 92 85 90 95 106 112 118 126 132 133 129 118 116
147 191 179 194 195 213 191 202 184 151 136 125 107 106 98 88 80 81 74 68 57 63 63 81 95 103 102 106 105 104 100 89 94 94 111 124 123 126 125 121 122 123 114
233 227 238 262 252 256 239 218 192 176 139 117 120 125 105 93 78 66 61 62 62 65 71 76 87 84 95 94 93 96 103 95 93 94 98 113 118 128 123 114 110 105 103
271 269 302 329 291 276 246 230 222 177 156 133 153 147 117 105 89 70 58 65 71 82 87 86 83 87 80 73 74 84 96 86 91 93 91 90 97 105 108 111 99 87 83
349 322 352 349 315 312 284 244 217 190 166 169 171 175 149 118 113 99 90 88 98 120 128 118 95 80 80 80 70 76 82 90 91 97 95 92 100 117 113 100 89 87 82
465 396 377 414 389 356 290 247 220 189 191 199 205 169 152 104 97 111 126 141 145 159 154 144 118 115 102 93 85 86 76 78 87 90 95 99 102 102 96 98 97 97 98
469 418 433 450 406 374 317 277 237 208 204 197 205 197 175 139 112 111 118 140 173 172 157 124 129 127 145 143 136 123 101 84 80 92 104 106 100 97 99 94 108 101 125
430 474 462 504 456 420 382 326 279 241 209 205 204 192 173 165 153 149 129 135 154 157 137 151 141 177 186 187 172 176 192 158 127 111 107 104 96 92 96 105 107 142 147
498 467 498 515 491 454 424 326 285 265 231 252 194 214 178 141 125 133 137 137 138 138 166 161 176 183 173 174 182 178 149 130 117 110 104 87 82 87 99 133 138 141 157
531 484 520 513 508 437 404 372 352 311 241 251 201 231 147 141 131 139 145 136 149 132 135 128 120 156 174 170 118 137 127 130 123 118 106 102 121 148 175 162 161 182 174
600 571 538 495 483 456 441 393 365 328 214 267 227 210 150 137 133 132 138 154 142 158 178 119 127 127 125 83 84 86 118 116 127 135 149 174 189 185 183 179 184 185 161
612 550 475 464 456 460 422 397 323 305 282 207 248 160 139 125 131 134 151 152 157 146 133 134 112 110 91 75 63 88 101 100 110 133 143 154 165 180 168 164 142 169 154
502 460 435 404 430 421 419 354 338 269 212 221 214 171 98 115 124 138 143 171 202 190 209 180 164 133 106 104 92 115 133 116 119 119 114 135 147 138 126 128 149 125 109
418 389 384 408 387 392 343 366 373 246 231 269 179 128 119 115 122 132 159 199 180 200 212 205 185 165 165 146 154 166 158 174 165 100 115 118 104 104 136 118 104 103 80
366 390 401 421 403 323 384 261 299 275 161 92 99 85 95 115 122 140 182 156 182 188 211 171 183 181 169 166 175 168 183 180 179 119 89 74 78 81 78 83 76 78 76
380 409 433 408 331 357 287 282 223 208 231 181 123 103 129 142 155 177 163 165 177 182 184 196 178 193 187 180 167 161 187 157 152 70 40 46 63 66 59 56 63 67 54
419 455 466 444 410 299 311 343 309 206 139 107 150 152 157 161 142 140 145 145 153 162 172 190 208 208 206 165 164 183 160 128 131 124 96 39 28 38 64 63 62 63 63
488 482 393 364 309 262 244 210 146 149 141 159 167 168 159 146 119 126 152 145 169 193 201 228 233 248 199 161 175 131 123 121 117 115 116 74 134 156 165 102 80 60 60
544 375 388 193 212 118 105 120 151 168 163 146 145 160 156 155 172 169 162 165 170 202 221 233 233 197 171 151 122 119 118 103 84 79 123 100 123 132 143 136 45 27 40
303 305 193 152 135 129 111 121 139 152 134 136 143 146 150 145 150 162 167 177 184 164 154 185 195 157 137 117 123 117 103 114 118 124 115 141 133 135 145 119 38 37 38
298 170 109 84 84 70 75 97 115 112 129 122 114 114 121 131 145 154 177 201 202 174 159 164 145 133 132 114 93 92 91 120 144 146 129 160 141 159 134 142 82 3 4
128 92 73 72 47 66 74 74 105 110 109 104 100 123 124 131 142 135 175 193 177 149 111 47 45 45 50 37 48 107 118 117 125 128 121 125 146 143 120 132 100 1 54
58 35 18 29 75 80 59 75 87 85 89 107 121 119 132 149 128 112 167 177 154 117 110 85 94 67 68 81 53 108 129 137 132 95 112 144 132 110 28 135 112 173 164
Wind_Speed
4 0 4 8 10 12 13 18 20 23 27 28 30 31 34 34 34 35 36 35 32 31 32 35 37 39 42 44 45 46 47 47 47 49 50 49 51 52 53 53 54 55 55
6 4 4 6 10 10 12 16 18 22 27 30 33 34 33 34 33 33 33 33 31 31 32 35 37 40 43 46 48 48 49 49 50 51 51 51 52 54 54 56 56 57 57
6 5 5 5 10 12 12 13 20 25 28 31 33 33 32 33 32 30 30 31 31 32 33 35 39 42 44 48 49 51 52 51 53 53 53 53 54 55 57 58 59 60 60
10 8 8 8 8 8 9 14 21 28 29 30 32 33 32 34 32 27 27 28 30 32 34 37 40 44 47 51 51 55 54 53 56 55 55 55 56 57 60 62 63 64 64
12 13 11 7 4 7 10 15 24 26 28 30 32 33 32 34 33 28 27 29 30 33 35 39 42 45 49 53 55 56 57 55 58 57 57 58 58 61 63 65 67 68 69
13 14 14 9 7 8 11 16 20 26 26 28 32 35 33 34 32 30 28 30 32 34 37 41 42 47 51 54 56 59 61 59 57 59 61 61 61 65 67 70 71 73 74
16 16 15 14 12 11 12 14 21 25 29 28 32 34 38 33 32 30 33 35 36 37 40 43 48 52 54 55 58 61 64 60 60 63 62 62 64 67 71 75 78 78 78
20 18 16 15 15 15 15 15 19 27 30 30 33 36 42 41 37 35 34 36 37 39 42 47 52 56 57 58 59 64 64 63 63 65 66 65 67 73 77 81 81 81 83
27 24 21 17 16 15 14 14 17 24 29 34 34 36 41 42 40 41 40 39 38 40 45 53 59 61 62 62 65 66 64 64 65 68 69 70 73 78 82 83 84 85 87
32 28 24 21 19 17 16 17 18 23 27 31 35 36 38 38 45 50 43 40 41 43 53 59 63 68 65 66 66 67 68 67 68 70 74 76 80 84 87 88 89 90 89
40 32 27 22 22 20 18 17 20 23 28 28 33 35 38 40 42 46 55 49 48 50 59 62 67 62 65 65 67 69 70 71 74 77 81 84 88 91 92 94 92 91 89
41 37 31 27 24 21 21 21 22 24 26 30 31 34 36 41 43 45 52 57 60 59 57 65 63 60 61 67 73 76 78 82 82 85 89 92 93 93 92 91 93 93 93
44 40 35 31 26 21 22 22 23 25 24 28 31 35 35 38 40 45 51 59 64 62 63 61 57 62 62 72 77 86 86 86 86 89 94 92 92 93 94 96 95 96 98
47 41 36 32 26 21 21 23 25 26 23 27 31 35 36 39 42 45 50 59 72 68 67 62 62 59 67 83 83 85 84 87 89 95 95 94 96 96 95 95 97 98 100
43 38 34 32 27 23 21 22 25 24 26 27 31 33 38 41 44 45 49 53 63 79 80 67 68 63 80 81 82 85 84 89 93 94 94 95 95 96 98 98 99 99 96
40 37 34 31 29 25 21 21 25 24 25 29 34 36 39 45 44 47 52 56 59 67 80 71 76 81 83 83 83 86 88 93 91 94 95 95 97 98 95 94 95 97 97
35 35 32 27 26 21 21 22 24 24 30 33 35 42 46 47 49 52 56 58 62 65 82 82 76 79 83 87 88 87 88 88 89 92 95 95 94 92 94 95 92 91 88
30 28 25 24 20 19 21 16 22 27 36 38 41 44 51 49 54 57 61 63 65 66 75 89 82 83 83 83 86 89 87 85 87 87 91 89 89 88 86 85 79 79 81
24 22 20 17 15 15 14 20 22 29 38 46 52 57 55 55 59 62 62 65 67 68 71 82 91 82 84 85 90 86 87 86 83 82 82 82 81 80 76 77 80 82 83
20 18 16 13 12 8 14 21 29 39 45 50 53 52 57 59 60 61 64 67 68 71 75 83 87 89 88 88 87 97 97 86 88 79 78 75 73 73 77 81 81 83 84
15 13 9 9 13 13 20 26 34 36 46 49 51 57 57 57 60 63 66 67 72 77 82 86 89 90 92 95 97 92 92 89 84 80 76 67 74 74 76 78 79 82 83
10 9 11 15 16 17 21 28 34 42 47 52 56 58 59 63 65 67 68 71 73 79 84 85 89 92 93 91 88 86 85 88 86 70 73 85 78 79 78 75 78 84 88
9 9 7 6 14 25 32 34 36 43 48 53 55 59 62 64 69 71 71 72 73 74 77 84 90 88 91 86 82 80 73 71 78 77 81 86 77 75 72 72 78 86 90
14 9 12 18 24 29 32 36 39 44 48 54 57 60 65 70 72 74 74 75 76 76 75 76 79 79 73 69 66 68 75 74 72 71 71 83 74 69 70 66 70 78 77
9 16 21 25 28 33 37 40 42 48 54 59 60 64 69 74 75 77 78 82 81 78 73 74 70 67 64 68 71 70 70 75 82 74 70 68 67 72 75 63 53 53 60
18 24 29 29 33 36 36 44 48 50 57 63 66 70 73 76 76 75 80 83 85 84 77 71 65 64 63 62 62 61 65 73 77 81 65 67 73 76 80 62 56 58 56
Wind_Direction
301 261 354 356 358 355 359 356 358 358 355 353 346 343 340 342 344 345 347 352 356 359 359 357 355 347 339 338 339 339 337 339 339 336 336 336 333 328 325 324 323 321 320
273 256 296 326 338 346 345 346 353 351 349 346 341 341 343 344 347 349 351 353 356 358 357 356 354 346 340 336 335 335 334 335 334 333 333 333 331 328 325 323 322 321 319
229 230 278 301 325 330 344 351 346 343 341 341 338 341 345 346 349 351 354 355 355 356 355 354 351 348 343 337 334 332 332 333 332 330 331 331 330 327 323 322 321 320 317
229 253 277 293 325 344 349 344 339 336 336 335 336 336 342 343 346 350 353 354 353 352 351 349 346 344 341 336 335 332 331 331 330 329 329 328 327 326 323 321 320 317 315
243 272 276 276 296 324 332 335 336 337 333 334 334 337 339 338 341 346 348 349 350 349 347 345 344 342 338 335 332 331 329 328 327 326 326 325 325 322 321 320 318 315 312
249 266 273 260 285 308 326 334 337 339 338 337 335 334 337 338 336 338 341 342 343 344 343 342 342 340 338 335 332 329 327 325 325 324 323 322 321 320 319 317 315 312 310
242 253 260 262 273 283 301 322 332 331 332 338 335 336 329 341 336 338 332 332 335 336 337 337 336 335 334 334 332 329 326 325 323 322 322 321 319 319 317 315 312 310 308
242 243 240 249 262 281 294 306 318 322 326 331 330 331 324 323 328 332 334 333 334 336 337 336 334 332 331 330 329 326 325 323 322 321 320 319 318 317 315 313 311 309 307
243 248 249 250 253 267 274 292 307 315 317 324 328 326 325 321 325 329 329 331 333 334 335 333 331 331 330 327 325 324 324 323 322 320 319 318 316 315 313 312 310 308 306
249 251 255 260 258 263 273 291 307 313 319 318 323 328 327 327 322 320 328 330 331 330 329 329 328 327 328 327 326 325 324 322 320 319 318 316 314 313 311 310 309 307 306
260 256 259 261 266 272 279 288 300 309 316 319 320 324 323 324 324 321 319 324 326 326 326 328 327 329 329 331 330 328 326 323 320 318 316 314 313 311 310 309 308 307 306
259 262 266 268 273 276 280 288 298 308 313 319 319 324 323 322 322 322 320 321 321 325 327 327 328 328 329 329 327 325 323 320 318 316 314 313 311 310 310 309 308 306 305
258 259 264 269 273 277 284 291 298 309 313 318 319 323 325 326 326 325 323 322 321 324 325 326 327 327 328 327 326 322 320 319 318 316 315 313 312 311 309 308 307 305 304
257 257 261 266 270 278 282 289 298 307 310 320 323 325 326 326 326 326 325 323 321 322 322 324 325 326 326 324 324 322 321 320 318 316 315 314 312 311 309 308 307 305 303
257 254 256 264 268 279 282 285 295 302 311 319 322 324 325 325 326 328 327 326 323 319 319 324 324 326 324 324 324 323 322 320 318 317 315 314 313 311 309 308 306 306 304
253 251 255 260 267 279 283 289 297 304 312 319 319 323 324 322 326 327 325 325 323 319 317 322 321 322 324 324 324 323 321 320 319 317 315 314 312 311 310 309 308 306 304
250 248 250 254 266 271 283 295 302 302 316 321 322 319 318 323 324 324 324 324 322 320 316 319 321 323 323 323 323 323 322 321 320 318 316 315 314 313 311 310 309 308 306
246 240 244 253 261 272 290 292 305 310 314 318 321 321 318 323 322 323 322 322 321 321 319 317 321 323 323 324 324 323 322 322 320 320 318 317 316 315 314 313 312 310 308
237 236 240 244 254 277 290 308 316 318 319 317 319 313 321 322 322 322 322 322 322 322 321 319 319 323 324 325 324 324 323 323 322 322 320 319 318 318 317 314 312 311 308
228 230 244 251 264 277 307 322 322 319 322 313 319 324 324 323 323 324 324 323 323 322 322 320 320 321 323 325 324 323 323 325 324 324 322 321 320 319 317 314 313 310 307
227 235 229 258 281 306 315 323 323 326 321 325 325 324 326 327 326 325 325 325 324 322 321 321 321 322 323 324 324 325 323 325 325 325 325 326 323 320 317 315 312 310 307
227 220 262 271 308 321 331 333 327 325 326 325 325 328 329 328 329 328 326 325 324 323 323 322 322 322 323 324 325 325 325 326 327 332 330 325 326 322 319 316 313 309 304
231 261 283 7 339 333 324 328 335 331 329 329 330 330 330 331 329 328 328 327 326 326 323 323 321 322 322 324 324 325 327 328 326 328 328 325 329 326 325 321 315 310 305
258 328 336 334 335 332 330 335 337 336 337 335 333 333 332 331 331 329 328 327 326 327 326 325 323 323 324 326 327 327 326 326 326 328 330 324 330 328 328 327 322 315 310
15 340 335 336 333 331 332 333 339 337 334 334 334 334 332 331 331 330 329 327 328 328 329 327 327 328 329 327 326 328 327 328 326 329 331 328 332 329 327 329 331 328 323
334 321 316 341 341 343 342 338 337 336 334 334 334 334 334 333 332 332 331 330 328 329 330 332 333 332 331 331 331 330 329 326 327 329 336 332 330 332 326 329 333 330 326